CAPE
0 0 0 0 0 0 0 63 78 165 136 92 67 104 245 450 397 533 25 12 531 1281 1676 1913 2502 2693 2712 2547 2358 2154 1848 1723 2139 1870 1851 1923 2015 1954 1802 1918 1690 1450 690 470 379 472 645 697 522
0 0 0 2 0 32 13 24 84 56 22 89 5 25 11 25 56 337 334 0 621 1223 1278 1746 2307 2488 2662 2497 2262 2072 1991 2249 2271 1982 1932 1925 1974 1921 1723 1595 1581 1156 577 410 456 597 729 662 440
0 0 0 0 0 0 33 14 86 91 70 112 13 1 1 3 57 42 150 102 466 617 1223 1957 2411 2273 2582 2443 2234 2071 2251 2465 2144 1918 1838 1796 1800 1979 1855 1698 1537 928 493 359 476 643 888 689 432
0 0 0 0 0 0 42 51 0 122 103 32 0 40 61 0 2 357 185 166 104 743 1294 2245 2522 2538 2691 2552 2475 2409 2496 2513 2278 1901 1815 1759 1719 1986 1870 1751 1577 1301 699 365 574 885 932 780 608
0 0 0 0 0 0 9 32 0 128 93 319 271 39 0 0 0 399 364 99 55 1220 1444 1884 2480 2571 2626 2351 2373 2589 2551 2539 2484 2109 1838 1796 1915 1974 1896 1748 1354 1075 1103 995 950 1017 755 599 634
0 0 0 0 1 0 0 0 0 98 162 100 48 1 0 0 2 350 940 59 270 1152 1372 1685 2329 2493 2449 2353 2446 2554 2501 2436 2393 2313 2217 2196 2283 2129 1793 1730 1411 1284 1233 1130 1138 1060 821 604 593
0 0 0 0 0 0 0 0 0 0 0 106 51 23 15 0 7 105 107 267 1122 1039 1066 1345 1744 1942 2285 2384 2349 2369 2310 2269 2275 2236 2213 2271 2406 2363 2050 1894 1635 1358 1239 1238 1184 1202 1066 939 841
0 0 0 0 0 1 0 0 0 0 0 147 89 62 107 58 7 257 328 1046 1073 900 769 1185 1534 1507 1782 1896 2123 2281 2262 2243 2242 2261 2295 2347 2449 2339 2196 1979 1831 1505 1242 1286 1295 1328 1376 1305 1178
0 0 0 0 0 0 0 0 0 0 0 30 81 235 333 167 556 299 208 1216 1273 887 479 533 900 1068 1106 1380 1686 2160 1765 1799 2094 2043 2317 2174 1764 1810 1996 1945 1696 1687 1484 1352 1454 1513 1523 1516 1448
0 0 0 0 0 0 0 0 0 0 0 8 607 901 958 967 505 380 352 143 1471 1071 331 284 425 630 407 805 1048 1618 1336 1296 1574 1545 1551 1493 1189 615 1419 1669 2372 2221 1838 1598 1600 1629 1624 1538 669
0 0 0 0 0 0 0 0 0 0 0 0 14 877 907 912 75 561 28 48 220 1143 591 368 415 496 365 434 961 1260 1176 1219 1116 790 734 998 694 366 478 794 1449 1601 2148 928 1156 998 847 553 407
0 0 0 0 0 0 0 0 0 0 0 0 0 15 787 918 319 290 0 10 8 332 961 659 720 661 586 498 1195 779 753 821 714 639 473 683 557 254 225 276 760 1152 1165 1003 563 554 338 256 59
0 0 0 0 0 0 0 0 0 0 0 0 0 0 0 583 434 42 24 19 103 223 613 836 641 693 689 904 1205 819 651 748 640 656 606 680 748 681 644 628 810 1040 839 847 761 400 225 95 78
0 0 0 0 0 0 0 0 0 0 0 0 0 0 0 0 245 127 42 87 80 291 225 470 652 675 740 1320 1349 1241 959 782 665 669 679 748 753 831 1007 799 610 516 671 793 779 266 514 378 550
0 0 0 0 0 0 0 0 0 0 0 0 0 0 0 0 149 574 137 562 364 319 268 86 490 702 440 818 1246 1492 1270 821 687 807 795 908 849 823 698 923 936 774 555 283 715 887 733 305 95
0 0 0 0 0 0 0 0 0 0 0 0 3 276 582 223 69 28 507 652 864 713 528 677 949 990 810 915 1231 1303 1256 1262 614 832 998 1093 1114 1279 1299 1156 1234 1039 1617 869 450 164 171 117 38
0 0 0 0 0 0 0 0 3 5 131 382 968 895 1187 569 1634 1097 406 143 426 1037 953 957 839 1115 1549 1446 1701 1567 1520 1238 1171 1269 797 1406 1369 1341 1413 1552 1309 891 1338 712 487 274 140 14 3
0 0 0 0 0 0 0 0 5 88 220 390 670 2 108 423 487 1225 1654 1340 1102 1370 1606 1234 1137 1347 1672 2261 2108 1793 1696 1998 1429 1064 433 8 28 2 0 12 239 1278 1480 621 398 317 35 0 0
0 0 0 0 0 0 0 13 2 0 79 217 792 0 0 168 274 156 1908 1754 1788 2180 3313 1918 1986 2425 2229 2462 2305 2287 2159 1786 1600 315 44 124 431 798 457 0 75 1746 1217 598 305 84 11 1 0
0 0 0 0 0 15 0 0 47 0 3 4 250 388 413 224 555 871 1792 1762 1815 1973 2233 2459 3664 3149 2758 2745 2507 2475 2294 1749 669 73 27 320 857 214 135 0 0 1058 1664 1001 368 45 1 0 0
0 0 0 0 0 0 0 0 28 37 7 12 909 1288 1195 1250 1332 1928 2434 2259 2184 2439 2216 2488 2595 3017 3592 3303 3514 3572 2321 1233 345 2 0 7 106 102 52 0 0 70 826 1477 935 347 34 166 1
0 0 0 0 0 0 1 0 9 65 0 85 240 971 1061 949 919 2036 1898 1964 2111 2614 2527 2872 2789 2654 2911 3111 3681 3217 2888 2149 833 41 0 51 135 8 0 97 275 266 481 935 1079 267 268 80 12
0 0 0 0 0 2 43 63 17 11 104 82 137 287 481 657 671 1043 1458 1373 1534 1824 1881 1542 1884 1545 1631 1413 1607 1614 1120 956 595 612 750 431 447 440 542 888 945 1122 1306 1130 857 387 59 1 0
0 0 0 0 0 0 4 4 1 0 35 124 88 121 242 286 412 419 693 1004 1000 1368 1560 1425 1040 1293 1340 1663 1446 1208 834 852 1069 770 601 466 634 298 72 125 208 325 981 676 394 63 1 0 1
0 0 0 0 5 1 2 13 6 70 9 80 10 9 6 68 69 68 70 413 480 742 924 1102 999 818 903 1072 1141 1471 1066 598 560 528 481 166 51 1 1 0 1 0 1 0 0 0 0 0 0
0 0 0 0 0 0 38 82 72 49 67 89 0 0 0 0 0 0 0 0 131 93 371 711 800 840 739 953 1010 1150 1090 552 549 133 28 0 0 0 0 0 0 0 0 0 0 0 0 0 0
0 0 0 0 0 1 6 1 0 20 17 0 0 0 0 0 0 0 0 0 2 75 47 117 195 249 525 747 959 1072 891 767 347 72 0 0 0 0 0 0 0 0 0 0 0 0 0 0 0
0 0 0 0 0 0 1 20 0 118 29 0 0 0 0 0 0 0 0 0 0 0 0 0 21 239 339 393 562 1177 909 601 356 172 0 0 0 0 1 1 0 0 0 0 0 0 0 0 0
0 0 0 0 0 0 0 144 48 0 0 0 0 0 0 0 0 0 0 0 0 0 0 0 0 0 3 244 486 888 764 686 453 281 2 0 0 1 0 0 0 0 0 0 0 4 1 8 2
0 0 0 0 0 0 0 6 4 0 0 0 0 0 0 0 0 0 0 0 0 0 0 0 0 0 0 0 0 309 714 689 515 352 83 23 0 0 0 0 2 0 0 0 0 0 0 0 0
CIN
-0 -0 -0 -0 -0 -30 -0 -202 -131 -77 -32 -55 -103 -108 -92 -19 -16 -32 -342 -493 -485 -345 -201 -144 -78 -41 -39 -39 -39 -38 -48 -53 -23 -31 -27 -21 -18 -23 -28 -21 -34 -47 -107 -122 -123 -134 -129 -117 -142
-0 -0 -0 -213 -0 -130 -127 -237 -120 -62 -25 -110 -118 -65 -141 -48 -201 -74 -250 -0 -422 -317 -245 -160 -85 -55 -37 -38 -40 -41 -37 -15 -12 -18 -18 -20 -17 -20 -35 -45 -41 -69 -115 -120 -120 -112 -118 -132 -163
-0 -0 -0 -0 -0 -0 -55 -75 -96 -78 -111 -84 -200 -69 -169 -253 -277 -102 -348 -522 -435 -365 -234 -116 -64 -61 -38 -36 -38 -38 -18 -4 -12 -19 -23 -25 -23 -17 -31 -45 -53 -93 -126 -134 -125 -110 -105 -136 -180
-0 -0 -0 -0 -0 -0 -64 -51 -1 -38 -151 -188 -19 -299 -442 -0 -55 -150 -376 -463 -542 -298 -200 -82 -43 -34 -30 -29 -20 -16 -8 -3 -4 -17 -23 -29 -38 -26 -36 -42 -47 -51 -92 -139 -122 -96 -111 -138 -161
-0 -0 -0 -0 -0 -0 -54 -30 -0 -47 -113 -255 -264 -404 -0 -0 -0 -131 -289 -470 -470 -282 -196 -98 -38 -26 -23 -44 -36 -15 -11 -3 -1 -13 -28 -34 -34 -30 -39 -43 -65 -77 -64 -68 -78 -101 -150 -183 -175
-0 -0 -0 -0 -14 -0 -0 -0 -0 -75 -197 -297 -335 -170 -0 -0 -172 -176 -109 -411 -401 -312 -258 -159 -54 -34 -32 -35 -31 -21 -20 -17 -11 -9 -12 -13 -8 -22 -50 -50 -76 -77 -65 -75 -73 -112 -164 -208 -199
-0 -0 -0 -0 -0 -0 -0 -0 -0 -0 -10 -187 -314 -315 -368 -0 -280 -127 -146 -261 -281 -304 -315 -236 -146 -90 -51 -43 -42 -36 -32 -26 -21 -20 -17 -8 -4 -7 -21 -34 -52 -67 -64 -64 -74 -77 -109 -138 -146
-0 -0 -0 -0 -0 -12 -0 -0 -0 -0 -0 -156 -172 -129 -218 -331 -268 -210 -190 -286 -310 -313 -356 -295 -204 -163 -112 -88 -65 -52 -52 -47 -45 -33 -16 -8 -1 -0 -6 -16 -23 -49 -60 -54 -54 -56 -60 -75 -95
-0 -0 -0 -0 -0 -0 -0 -0 -0 -0 -0 -39 -102 -163 -148 -209 -175 -172 -168 -249 -247 -360 -451 -420 -324 -271 -229 -170 -110 -54 -88 -73 -39 -43 -16 -23 -55 -47 -27 -29 -52 -57 -69 -74 -57 -60 -68 -57 -59
-0 -0 -0 -0 -0 -0 -0 -0 -0 -0 -0 -9 -48 -86 -125 -123 -133 -153 -327 -215 -114 -312 -468 -478 -443 -373 -367 -231 -228 -143 -176 -174 -129 -126 -118 -112 -145 -243 -105 -90 -34 -47 -70 -94 -98 -106 -94 -88 -241
-0 -0 -0 -0 -0 -0 -0 -0 -0 -0 -0 -0 -11 -77 -85 -96 -548 -388 -215 -508 -357 -167 -403 -476 -420 -399 -361 -262 -275 -235 -240 -226 -242 -278 -265 -196 -229 -320 -261 -185 -111 -122 -83 -277 -223 -249 -275 -359 -387
-0 -0 -0 -0 -0 -0 -0 -0 -0 -0 -0 -0 -0 -21 -72 -80 -357 -480 -65 -694 -96 -333 -324 -427 -399 -407 -361 -323 -314 -373 -355 -337 -333 -343 -404 -333 -382 -480 -465 -477 -329 -275 -275 -326 -426 -399 -417 -433 -463
-0 -0 -0 -0 -0 -0 -0 -0 -0 -0 -0 -0 -0 -0 -0 -108 -222 -803 -672 -547 -464 -288 -273 -343 -364 -366 -346 -393 -371 -419 -386 -365 -393 -406 -439 -400 -389 -397 -401 -364 -327 -319 -337 -324 -293 -349 -409 -469 -487
-0 -0 -0 -0 -0 -0 -0 -0 -0 -0 -0 -0 -0 -0 -0 -0 -80 -562 -660 -470 -518 -237 -288 -304 -322 -327 -365 -338 -286 -291 -312 -365 -414 -419 -403 -368 -355 -289 -201 -187 -221 -280 -274 -219 -231 -354 -346 -348 -290
-0 -0 -0 -0 -0 -0 -0 -0 -0 -0 -0 -0 -0 -0 -0 -0 -90 -71 -72 -190 -210 -256 -293 -347 -345 -358 -345 -334 -285 -241 -293 -343 -369 -353 -347 -328 -278 -240 -214 -191 -164 -178 -155 -250 -278 -276 -299 -336 -359
-0 -0 -0 -0 -0 -0 -0 -0 -0 -0 -0 -0 -12 -94 -158 -339 -398 -396 -221 -197 -205 -243 -249 -277 -254 -337 -354 -314 -259 -221 -183 -178 -263 -216 -272 -236 -213 -160 -158 -143 -140 -159 -119 -255 -364 -479 -411 -395 -416
-0 -0 -0 -0 -0 -0 -0 -0 -202 -75 -96 -76 -283 -518 -377 -480 -197 -229 -330 -333 -256 -240 -247 -250 -343 -320 -300 -316 -266 -231 -195 -215 -186 -166 -218 -165 -146 -126 -177 -134 -131 -173 -151 -313 -345 -472 -467 -476 -145
-0 -0 -0 -0 -0 -0 -0 -0 -402 -177 -179 -108 -370 -199 -678 -648 -571 -316 -238 -326 -314 -259 -235 -232 -302 -313 -295 -265 -261 -262 -213 -146 -159 -176 -421 -196 -798 -198 -0 -112 -281 -147 -165 -339 -425 -394 -535 -0 -0
-0 -0 -0 -0 -0 -0 -0 -271 -318 -1 -388 -295 -182 -0 -0 -635 -340 -382 -147 -295 -340 -347 -138 -244 -176 -237 -214 -201 -184 -181 -158 -138 -144 -596 -747 -615 -349 -153 -245 -0 -200 -98 -181 -335 -409 -506 -542 -0 -0
-0 -0 -0 -0 -0 -123 -0 -0 -305 -50 -158 -101 -220 -315 -363 -515 -202 -224 -126 -222 -315 -293 -293 -284 -129 -111 -158 -176 -158 -118 -106 -190 -471 -735 -680 -392 -150 -357 -482 -0 -0 -198 -92 -214 -350 -502 -0 -0 -0
-0 -0 -0 -0 -0 -0 -30 -0 -349 -380 -123 -290 -37 -33 -58 -103 -103 -38 -115 -184 -216 -199 -247 -232 -213 -221 -115 -85 -87 -76 -140 -292 -468 -292 -0 -363 -370 -299 -513 -0 -0 -529 -205 -100 -171 -233 -162 -98 -0
-0 -0 -0 -0 -0 -0 -10 -0 -464 -455 -0 -380 -79 -39 -62 -109 -145 -124 -225 -266 -247 -177 -218 -150 -133 -147 -144 -116 -40 -54 -50 -76 -292 -204 -0 -436 -399 -332 -0 -587 -461 -428 -280 -147 -115 -224 -173 -193 -35
-0 -0 -0 -0 -0 -18 -112 -160 -307 -310 -129 -97 -127 -72 -94 -176 -165 -199 -233 -255 -261 -258 -247 -332 -249 -330 -304 -340 -281 -252 -273 -218 -252 -142 -83 -120 -264 -365 -348 -254 -237 -132 -75 -85 -88 -135 -222 -0 -0
-0 -0 -0 -0 -0 -20 -174 -141 -38 -0 -19 -57 -126 -121 -145 -236 -300 -270 -285 -308 -301 -258 -241 -288 -357 -314 -280 -235 -234 -262 -279 -199 -201 -107 -154 -117 -190 -354 -310 -428 -338 -262 -128 -157 -185 -241 -0 -0 -0
-0 -0 -0 -0 -91 -40 -19 -21 -172 -99 -37 -56 -111 -161 -37 -189 -306 -395 -441 -391 -360 -280 -232 -214 -244 -290 -276 -224 -194 -127 -196 -174 -163 -148 -122 -342 -487 -174 -0 -0 -0 -0 -0 -0 -0 -0 -0 -0 -0
-0 -0 -0 -0 -0 -17 -125 -124 -210 -373 -109 -45 -0 -0 -0 -0 -0 -0 -0 -0 -356 -323 -230 -175 -175 -170 -182 -132 -118 -97 -99 -219 -198 -310 -349 -40 -0 -0 -0 -0 -0 -0 -0 -0 -0 -0 -0 -0 -0
-0 -0 -0 -0 -0 -15 -143 -187 -0 -61 -78 -0 -13 -0 -0 -0 -0 -0 -0 -0 -63 -261 -225 -164 -149 -148 -106 -77 -49 -32 -52 -92 -180 -276 -0 -0 -0 -1 -0 -0 -0 -0 -0 -0 -0 -0 -0 -0 -0
-0 -0 -0 -0 -0 -0 -24 -49 -0 -103 -93 -0 -0 -0 -0 -0 -0 -0 -0 -0 -0 -0 -0 -0 -85 -62 -53 -61 -59 -23 -37 -46 -91 -159 -8 -0 -0 -6 -4 -2 -0 -0 -0 -0 -0 -0 -0 -0 -0
-0 -0 -0 -0 -0 -0 -0 -18 -79 -0 -0 -0 -0 -0 -0 -0 -0 -0 -0 -0 -0 -0 -0 -0 -0 -0 -26 -42 -25 -26 -36 -41 -39 -59 -10 -0 -2 -15 -0 -0 -1 -0 -0 -0 -0 -42 -4 -53 -40
-0 -0 -0 -0 -0 -0 -0 -45 -113 -0 -0 -0 -0 -0 -0 -0 -0 -0 -0 -0 -0 -0 -0 -0 -0 -0 -0 -0 -0 -44 -30 -38 -47 -39 -58 -106 -0 -0 -0 -0 -66 -0 -3 -3 -0 -0 -0 -0 -1
Wind_Speed
4 6 3 1 4 5 6 8 5 11 1 6 22 16 4 10 5 3 3 17 21 18 14 15 20 18 18 17 17 16 15 14 13 12 12 11 11 11 10 9 9 9 9 8 7 8 7 6 5
2 4 2 3 4 2 7 7 10 8 4 14 16 13 10 7 16 7 8 16 18 16 11 13 19 18 17 17 17 16 15 14 14 12 11 11 10 10 9 8 7 8 8 8 7 7 6 6 3
2 6 2 4 4 8 7 13 18 15 15 14 8 9 3 4 13 5 16 20 17 13 11 13 17 17 17 16 16 16 15 14 14 13 11 10 10 9 8 7 7 8 8 8 7 6 6 6 4
2 3 4 2 8 14 12 12 5 11 19 14 14 5 5 13 5 7 20 21 18 14 11 14 16 16 17 17 16 16 15 14 13 12 11 10 10 9 8 7 6 6 6 7 7 6 6 5 4
1 3 2 4 7 12 5 11 7 9 11 10 9 6 5 11 6 11 20 19 21 15 14 11 15 15 16 17 17 16 15 14 13 12 12 11 10 9 8 7 7 7 7 7 8 7 6 5 6
3 2 4 4 5 11 9 3 3 13 14 11 8 12 7 8 3 6 17 18 19 18 15 14 16 15 15 15 16 15 15 14 13 12 11 10 10 10 9 9 9 9 8 9 9 8 8 8 8
6 1 6 9 7 5 6 2 2 5 3 9 19 15 4 5 8 8 8 19 18 17 14 12 12 14 16 15 15 14 14 13 13 12 11 11 11 10 10 10 9 8 8 9 9 9 9 8 8
3 4 10 8 6 8 10 5 4 7 6 17 12 6 7 8 11 8 18 19 17 16 14 13 12 10 9 9 16 15 15 14 14 13 12 11 10 10 10 9 9 9 10 10 10 10 10 10 10
3 4 7 10 9 7 8 7 7 6 5 8 7 7 11 11 16 10 8 15 14 14 15 13 12 11 9 8 10 13 15 13 12 12 12 9 4 6 8 10 13 14 14 14 14 13 13 12 12
4 3 9 8 6 7 9 9 7 7 10 6 8 9 14 18 16 10 15 7 7 15 16 16 15 14 11 10 10 8 8 7 6 6 7 5 6 6 11 14 18 18 18 18 19 19 17 14 5
7 7 10 8 6 8 6 9 7 6 9 6 3 15 15 11 20 17 19 16 15 14 15 17 17 16 16 12 8 6 6 6 7 9 7 7 6 7 6 6 8 9 18 10 13 12 10 11 8
2 9 8 5 7 7 8 8 8 5 9 9 9 6 12 11 21 21 24 16 18 17 20 20 19 17 17 11 10 10 9 8 7 10 13 10 7 9 10 8 11 11 9 11 11 7 10 9 6
4 9 7 9 9 6 6 9 5 9 11 8 7 6 3 10 18 22 26 19 17 17 20 21 19 17 15 10 10 10 10 9 11 10 12 11 10 10 9 7 7 8 7 8 7 8 6 7 9
7 7 8 10 11 5 5 8 2 13 7 8 5 4 2 5 10 21 16 16 17 16 15 20 19 18 13 11 12 10 10 12 10 10 11 15 11 8 4 4 4 5 7 8 8 7 6 8 9
8 7 9 10 9 5 2 7 9 9 2 6 8 7 2 6 11 10 8 14 16 14 14 11 17 15 11 12 11 7 7 9 10 9 14 15 12 9 9 5 5 6 3 4 4 5 5 5 3
9 5 5 10 6 5 5 10 7 4 5 6 12 22 27 27 22 17 10 10 2 11 10 9 12 12 9 8 6 4 4 3 4 6 7 14 14 11 6 5 5 3 3 5 6 4 3 4 4
5 10 10 4 5 3 7 7 18 16 16 16 26 28 26 29 27 21 16 10 10 7 11 9 10 13 9 7 5 6 6 4 4 4 3 8 10 8 1 2 4 3 3 4 6 4 4 4 3
8 6 6 8 3 8 17 11 16 13 24 16 18 21 20 21 18 19 16 15 11 8 4 9 8 12 9 5 4 2 3 3 4 1 6 11 8 10 10 6 7 5 3 4 4 4 3 3 3
7 6 6 6 5 13 10 11 19 22 29 20 8 14 10 9 11 5 14 11 17 20 9 4 4 7 8 2 3 2 4 4 2 6 9 10 7 11 7 9 6 5 6 8 5 2 3 2 2
8 6 7 6 6 13 5 8 11 18 6 17 20 12 10 5 3 4 7 14 14 15 16 17 10 2 5 3 2 3 4 4 3 1 6 11 18 18 14 6 6 5 4 5 5 4 1 2 4
8 5 5 4 8 8 6 4 3 13 13 23 2 14 15 13 10 6 11 14 16 18 13 11 10 13 9 3 3 2 3 5 2 4 4 5 13 8 7 5 4 6 4 5 6 5 6 7 4
4 6 7 8 4 6 6 3 7 6 9 20 8 13 15 15 17 19 19 18 21 18 18 16 11 9 7 10 5 7 4 4 0 2 3 4 2 7 6 5 6 7 6 10 7 4 8 5 4
6 7 5 9 8 7 6 7 6 6 2 4 8 16 16 16 16 16 18 15 16 17 14 17 17 16 16 15 15 10 12 10 5 5 11 6 9 6 6 6 7 9 6 3 2 1 4 5 3
9 5 8 4 3 4 6 7 6 4 5 10 12 13 14 16 16 16 15 16 17 15 15 15 17 16 16 15 11 7 7 9 10 5 5 5 3 3 7 7 5 4 1 1 1 2 2 3 3
8 7 6 8 8 4 5 6 8 12 13 13 14 10 12 13 14 14 13 14 14 15 14 12 10 12 11 11 11 8 7 6 3 3 1 7 7 5 7 9 8 6 5 6 7 5 3 4 3
6 7 5 2 3 6 5 4 3 10 9 10 11 9 9 10 10 11 10 9 9 9 9 10 10 11 10 11 11 8 8 5 5 5 5 4 4 5 8 7 6 6 5 4 4 3 2 3 4
7 7 3 3 5 5 3 4 4 7 22 10 9 10 8 9 8 8 9 8 8 8 9 9 9 10 10 10 9 11 10 6 5 6 6 5 4 3 4 3 3 4 4 5 4 2 3 3 3
5 2 9 6 5 6 4 3 4 4 6 7 8 9 9 7 8 8 7 8 7 7 6 8 8 7 8 9 7 7 8 5 4 3 4 4 3 3 1 2 3 4 4 5 4 3 4 4 4
7 6 6 4 6 2 4 2 3 7 7 8 8 7 7 7 7 7 7 6 7 6 6 5 6 7 7 8 8 8 7 7 5 3 1 4 1 3 3 4 5 6 6 5 4 4 3 5 4
7 6 7 6 4 1 3 4 7 9 8 7 6 7 6 6 6 7 8 7 7 8 8 6 6 7 6 6 8 8 8 7 6 5 6 6 6 6 7 7 6 0 4 6 8 9 9 9 10
Wind_Direction
171 212 182 344 72 69 261 231 261 281 35 64 73 86 61 51 53 161 125 119 125 130 140 135 132 133 134 135 133 131 131 130 127 126 125 123 119 114 110 107 112 119 123 126 125 117 111 99 89
359 302 169 270 127 175 262 282 281 229 44 104 48 73 34 7 13 69 96 122 120 127 132 132 134 135 134 135 133 134 136 135 132 135 136 133 130 129 126 127 132 137 142 145 139 138 136 134 138
239 192 98 181 239 207 241 245 248 279 88 76 98 54 15 298 321 277 119 119 121 123 127 133 132 136 136 137 136 140 140 139 139 143 144 142 141 138 140 147 153 158 161 161 155 160 155 165 178
321 359 297 150 252 259 253 279 327 98 87 97 118 65 241 198 198 176 129 130 129 124 120 130 132 136 137 140 142 144 144 145 147 152 153 153 154 151 157 162 166 175 179 176 176 174 172 183 196
120 293 269 310 236 273 286 252 43 88 93 116 126 181 255 321 210 141 141 138 134 128 132 133 138 143 146 150 150 149 150 152 155 158 162 166 166 167 171 175 178 190 193 193 193 185 192 202 218
306 134 329 266 282 253 291 330 56 112 119 131 96 136 214 243 157 201 156 143 135 137 143 144 148 151 153 157 156 156 157 159 160 163 170 176 179 181 182 187 193 199 207 206 207 199 205 213 227
204 47 262 280 255 23 305 360 14 63 17 151 161 152 217 156 208 233 141 132 135 135 140 146 152 161 162 162 162 162 160 162 165 171 178 185 188 190 193 200 205 209 218 222 222 218 219 228 237
196 97 291 271 277 220 253 139 77 59 302 147 165 154 181 198 198 165 117 134 140 140 148 151 153 160 162 166 169 168 166 172 175 178 184 189 194 200 207 209 216 217 227 230 233 234 234 234 237
256 15 275 274 324 312 13 29 11 356 345 37 174 151 154 167 160 141 137 143 140 144 151 157 159 161 167 165 178 176 177 180 182 184 189 191 182 199 210 210 215 216 218 221 225 227 232 234 238
138 161 254 257 329 340 353 17 357 14 335 37 95 130 157 160 140 93 73 33 157 158 164 166 167 167 175 177 172 173 179 179 175 182 187 185 197 205 209 212 215 216 216 217 219 219 221 228 211
224 218 266 290 335 351 343 350 315 24 339 305 134 157 161 165 106 124 106 124 263 207 170 175 172 173 177 186 170 180 186 182 185 187 183 191 209 224 225 218 216 214 217 217 218 222 220 210 207
121 293 273 283 328 348 328 312 322 350 267 273 290 164 168 173 136 140 142 187 203 213 175 178 179 176 185 184 174 178 181 182 185 198 193 191 202 211 217 210 209 204 206 210 211 212 224 218 203
184 258 310 332 313 241 256 284 263 290 283 304 324 355 191 186 147 155 171 198 190 212 169 178 178 179 190 165 177 177 188 185 198 197 200 199 205 216 222 225 203 198 202 208 220 225 218 206 187
271 301 304 290 282 273 224 259 182 264 253 337 352 288 273 4 181 160 189 185 197 188 169 172 176 181 169 162 175 182 187 198 192 197 200 204 209 218 234 249 227 201 211 210 204 197 198 198 177
302 313 297 276 248 244 74 314 272 260 46 4 3 5 56 49 111 133 168 161 167 172 171 163 167 177 172 166 173 165 179 198 201 198 199 203 206 216 217 210 224 231 265 179 122 163 170 162 185
301 291 284 268 199 213 117 291 220 151 74 16 20 32 40 38 32 14 39 46 54 151 166 161 159 167 164 166 168 160 184 203 202 185 185 201 202 206 207 214 230 232 157 139 170 173 181 195 179
301 255 230 233 112 47 54 347 3 26 62 56 60 50 39 17 20 13 21 0 35 275 162 165 146 167 163 165 163 168 179 201 224 231 213 191 203 211 151 303 281 269 195 177 184 193 159 188 209
318 350 9 121 134 66 54 24 1 27 44 12 67 60 45 21 344 345 354 357 360 2 239 163 147 165 165 146 146 147 171 217 232 160 65 51 41 26 355 326 311 292 193 200 196 200 197 175 201
307 311 359 327 98 73 101 60 43 19 28 12 39 86 84 183 267 319 343 358 30 21 18 350 125 137 144 139 143 138 199 205 104 100 97 79 36 9 304 267 269 259 217 211 207 171 205 306 356
296 315 11 337 20 88 109 51 87 64 35 293 290 109 121 198 155 261 343 18 33 35 27 25 8 139 143 139 174 183 200 74 124 198 130 127 183 227 222 218 266 274 245 222 198 167 142 279 211
328 49 28 294 314 97 111 360 13 87 22 313 85 94 97 81 44 28 63 32 35 37 31 27 25 15 358 320 168 202 71 86 7 280 202 163 206 222 232 241 240 249 243 252 224 208 211 248 230
5 25 347 322 337 268 161 252 39 104 209 266 55 87 75 66 52 44 43 35 33 30 15 12 22 19 8 4 349 351 303 285 31 296 265 275 332 241 265 291 276 256 259 257 235 218 235 233 238
267 325 298 279 286 48 19 60 297 238 257 283 51 75 77 68 58 51 51 43 37 30 31 25 28 36 36 39 31 23 9 4 2 16 11 326 285 273 308 266 256 244 235 231 251 231 186 209 175
262 299 291 294 28 68 239 115 307 289 255 75 55 49 73 68 60 51 49 48 35 32 31 30 28 25 23 23 30 20 357 14 54 330 57 282 10 48 24 7 14 4 65 54 251 238 185 139 128
22 34 346 14 27 297 19 62 17 22 283 78 72 45 61 72 65 56 48 49 43 35 28 26 22 19 7 6 4 343 359 31 2 6 315 22 9 11 6 8 11 26 57 71 89 98 165 131 133
338 112 127 338 166 238 36 129 155 165 246 78 76 78 67 68 77 68 61 55 56 38 28 26 19 16 11 7 356 340 355 360 25 20 35 24 17 358 359 3 21 30 59 79 84 119 113 101 112
322 19 263 145 302 54 142 65 87 288 16 31 68 60 57 66 80 87 73 59 55 49 32 25 19 5 358 355 352 358 341 14 23 29 43 40 39 14 356 348 22 50 78 90 101 145 162 160 194
55 328 28 2 19 342 51 28 172 157 180 15 34 55 45 58 69 77 75 74 55 55 40 28 16 9 349 346 342 352 346 8 349 24 78 59 9 354 101 83 126 139 164 163 174 195 199 210 240
0 27 33 86 79 35 360 332 150 108 70 47 41 44 53 42 70 76 74 72 69 53 51 36 17 4 349 343 331 334 332 332 321 315 335 125 178 211 188 213 200 193 188 197 222 257 235 199 231
10 94 98 110 318 179 179 285 103 108 90 61 38 33 15 83 59 72 54 51 50 33 17 9 3 359 341 341 337 316 311 309 309 293 237 190 202 212 210 206 225 168 8 26 38 42 44 59 72